R1ZAA-14 Weather Reports


time (UTC)temp
C
wind
direction
speed
KPH
gust
KPH
rain 1hr
cm
rain 24hr
cm
rain mn
cm
humidity
%
barometer
mb
20260508141505 7 0.0 0.0 0.00 0.00 0.00 1009.0
20260508140503 10 0.0 0.0 0.00 0.00 0.00 1008.8
20260508135501 15 0.0 0.0 0.00 0.00 0.00 1008.8
20260508134458 11 0.0 0.0 0.00 0.00 0.00 1008.8
20260508133456 11 0.0 0.0 0.00 0.00 0.00 1008.7
20260508132454 13 0.0 0.0 0.00 0.00 0.00 1008.7
20260508131452 10 0.0 0.0 0.00 0.00 0.00 1008.8
20260508130449 6 0.0 0.0 0.00 0.00 0.00 1008.8
20260508125447 8 0.0 0.0 0.00 0.00 0.00 1008.7
20260508124445 7 0.0 0.0 0.00 0.00 0.00 1008.7
20260508123443 6 0.0 0.0 0.00 0.00 0.00 1008.6
20260508122440 11 0.0 0.0 0.00 0.00 0.00 1008.6
20260508121438 6 0.0 0.0 0.00 0.00 0.00 1008.5
20260508120436 6 0.0 0.0 0.00 0.00 0.00 1008.5
20260508115434 11 0.0 0.0 0.00 0.00 0.00 1008.5
20260508114431 5 0.0 0.0 0.00 0.00 0.00 1008.4
20260508113429 6 0.0 0.0 0.00 0.00 0.00 1008.4
20260508112427 12 0.0 0.0 0.00 0.00 0.00 1008.3
20260508111425 10 0.0 0.0 0.00 0.00 0.00 1008.3
20260508110422 11 0.0 0.0 0.00 0.00 0.00 1008.2
20260508105420 11 0.0 0.0 0.00 0.00 0.00 1008.2
20260508104418 8 0.0 0.0 0.00 0.00 0.00 1008.2
20260508103415 5 0.0 0.0 0.00 0.00 0.00 1008.2
20260508102413 12 0.0 0.0 0.00 0.00 0.00 1007.9
20260508101411 11 0.0 0.0 0.00 0.00 0.00 1007.8
20260508100409 5 0.0 0.0 0.00 0.00 0.00 1007.8
20260508095406 4 0.0 0.0 0.00 0.00 0.00 1007.8
20260508094404 4 0.0 0.0 0.00 0.00 0.00 1007.7
20260508093402 5 0.0 0.0 0.00 0.00 0.00 1007.6
20260508092400 6 0.0 0.0 0.00 0.00 0.00 1007.5
20260508091357 5 0.0 0.0 0.00 0.00 0.00 1007.5
20260508090355 5 0.0 0.0 0.00 0.00 0.00 1007.5
20260508085353 5 0.0 0.0 0.00 0.00 0.00 1007.5
20260508084351 3 0.0 0.0 0.00 0.00 0.00 1007.4
20260508083348 3 0.0 0.0 0.00 0.00 0.00 1007.3
20260508082346 3 0.0 0.0 0.00 0.00 0.00 1007.2
20260508081344 3 0.0 0.0 0.00 0.00 0.00 1007.1
20260508080342 4 0.0 0.0 0.00 0.00 0.00 1007.1
20260508075340 3 0.0 0.0 0.00 0.00 0.00 1007.0
20260508074337 4 0.0 0.0 0.00 0.00 0.00 1007.0
20260508073335 3 0.0 0.0 0.00 0.00 0.00 1006.9
20260508072333 3 0.0 0.0 0.00 0.00 0.00 1006.9
20260508071331 3 0.0 0.0 0.00 0.00 0.00 1006.8
20260508070328 3 0.0 0.0 0.00 0.00 0.00 1006.8
20260508065326 3 0.0 0.0 0.00 0.00 0.00 1006.7
20260508064324 3 0.0 0.0 0.00 0.00 0.00 1006.7
20260508063322 3 0.0 0.0 0.00 0.00 0.00 1006.7
20260508062320 3 0.0 0.0 0.00 0.00 0.00 1006.5
20260508061317 3 0.0 0.0 0.00 0.00 0.00 1006.5
20260508060315 2 0.0 0.0 0.00 0.00 0.00 1006.4
20260508055313 2 0.0 0.0 0.00 0.00 0.00 1006.4
20260508054311 2 0.0 0.0 0.00 0.00 0.00 1006.3
20260508053308 2 0.0 0.0 0.00 0.00 0.00 1006.2
20260508052307 2 0.0 0.0 0.00 0.00 0.00 1006.2
20260508051304 2 0.0 0.0 0.00 0.00 0.00 1006.1
20260508050302 2 0.0 0.0 0.00 0.00 0.00 1006.1
20260508045300 1 0.0 0.0 0.00 0.00 0.00 1006.1
20260508044257 1 0.0 0.0 0.00 0.00 0.00 1006.0
20260508043255 1 0.0 0.0 0.00 0.00 0.00 1006.0
20260508042253 1 0.0 0.0 0.00 0.00 0.00 1006.0
20260508041250 0 0.0 0.0 0.00 0.00 0.00 1005.9
20260508040248 1 0.0 0.0 0.00 0.00 0.00 1005.8
20260508035246 0 0.0 0.0 0.00 0.00 0.00 1005.7
20260508034244 2 0.0 0.0 0.00 0.00 0.00 1005.6
20260508033241 2 0.0 0.0 0.00 0.00 0.00 1005.6
20260508032239 2 0.0 0.0 0.00 0.00 0.00 1005.5
20260508031237 2 0.0 0.0 0.00 0.00 0.00 1005.4
20260508030235 2 0.0 0.0 0.00 0.00 0.00 1005.3
20260508025232 2 0.0 0.0 0.00 0.00 0.00 1005.3
20260508024230 3 0.0 0.0 0.00 0.00 0.00 1005.2
20260508023228 3 0.0 0.0 0.00 0.00 0.00 1005.2
20260508022226 6 0.0 0.0 0.00 0.00 0.00 1005.2
20260508021224 5 0.0 0.0 0.00 0.00 0.00 1005.2
20260508020221 3 0.0 0.0 0.00 0.00 0.00 1005.1
20260508015219 3 0.0 0.0 0.00 0.00 0.00 1005.0
20260508014217 3 0.0 0.0 0.00 0.00 0.00 1004.9
20260508013214 3 0.0 0.0 0.00 0.00 0.00 1004.9
20260508012212 4 0.0 0.0 0.00 0.00 0.00 1004.8
20260508011210 3 0.0 0.0 0.00 0.00 0.00 1004.7
20260508010208 3 0.0 0.0 0.00 0.00 0.00 1004.7
20260508005205 1 0.0 0.0 0.00 0.00 0.00 1004.6
20260508004203 1 0.0 0.0 0.00 0.00 0.00 1004.6
20260508003201 3 0.0 0.0 0.00 0.00 0.00 1004.5
20260508002159 0 0.0 0.0 0.00 0.00 0.00 1004.4
20260508001157 5 0.0 0.0 0.00 0.00 0.00 1004.3
20260508000154 5 0.0 0.0 0.00 0.00 0.00 1004.2
20260507235152 2 0.0 0.0 0.00 0.00 0.00 1004.1
20260507234150 2 0.0 0.0 0.00 0.00 0.00 1004.1
20260507233148 1 0.0 0.0 0.00 0.00 0.00 1004.0
20260507232145 1 0.0 0.0 0.00 0.00 0.00 1003.9
20260507231143 4 0.0 0.0 0.00 0.00 0.00 1003.8
20260507230141 3 0.0 0.0 0.00 0.00 0.00 1003.8
20260507225139 1 0.0 0.0 0.00 0.00 0.00 1003.8
20260507224136 3 0.0 0.0 0.00 0.00 0.00 1003.7
20260507223134 3 0.0 0.0 0.00 0.00 0.00 1003.6
20260507222132 2 0.0 0.0 0.00 0.00 0.00 1003.5
20260507221130 3 0.0 0.0 0.00 0.00 0.00 1003.5
20260507220128 2 0.0 0.0 0.00 0.00 0.00 1003.4
20260507215125 3 0.0 0.0 0.00 0.00 0.00 1003.4
20260507214123 5 0.0 0.0 0.00 0.00 0.00 1003.4
20260507213121 2 0.0 0.0 0.00 0.00 0.00 1003.3
20260507212119 1 0.0 0.0 0.00 0.00 0.00 1003.3
20260507211116 3 0.0 0.0 0.00 0.00 0.00 1003.2
20260507210114 1 0.0 0.0 0.00 0.00 0.00 1003.1
20260507205112 2 0.0 0.0 0.00 0.00 0.00 1003.0
20260507204110 3 0.0 0.0 0.00 0.00 0.00 1003.0
20260507203108 3 0.0 0.0 0.00 0.00 0.00 1002.9
20260507202105 2 0.0 0.0 0.00 0.00 0.00 1002.8
20260507201103 2 0.0 0.0 0.00 0.00 0.00 1002.7
20260507195059 2 0.0 0.0 0.00 0.00 0.00 1002.5
20260507194056 2 0.0 0.0 0.00 0.00 0.00 1002.4
20260507193054 2 0.0 0.0 0.00 0.00 0.00 1002.3
20260507192052 2 0.0 0.0 0.00 0.00 0.00 1002.1
20260507191050 3 0.0 0.0 0.00 0.00 0.00 1002.1
20260507190048 4 0.0 0.0 0.00 0.00 0.00 1002.0
20260507185045 6 0.0 0.0 0.00 0.00 0.00 1002.0
20260507184043 6 0.0 0.0 0.00 0.00 0.00 1001.9
20260507183041 5 0.0 0.0 0.00 0.00 0.00 1001.8
20260507182039 7 0.0 0.0 0.00 0.00 0.00 1001.7
20260507181036 8 0.0 0.0 0.00 0.00 0.00 1001.7
20260507180034 8 0.0 0.0 0.00 0.00 0.00 1001.5
20260507175032 10 0.0 0.0 0.00 0.00 0.00 1001.6
20260507174030 5 0.0 0.0 0.00 0.00 0.00 1001.5
20260507173027 5 0.0 0.0 0.00 0.00 0.00 1001.5
20260507172025 5 0.0 0.0 0.00 0.00 0.00 1001.4
20260507171023 5 0.0 0.0 0.00 0.00 0.00 1001.4
20260507170021 5 0.0 0.0 0.00 0.00 0.00 1001.3
20260507165018 5 0.0 0.0 0.00 0.00 0.00 1001.3
20260507164016 6 0.0 0.0 0.00 0.00 0.00 1001.2
20260507163014 6 0.0 0.0 0.00 0.00 0.00 1001.2
20260507162012 6 0.0 0.0 0.00 0.00 0.00 1001.2
20260507161010 6 0.0 0.0 0.00 0.00 0.00 1001.1
20260507160007 6 0.0 0.0 0.00 0.00 0.00 1001.1
20260507155005 6 0.0 0.0 0.00 0.00 0.00 1001.0
20260507154003 5 0.0 0.0 0.00 0.00 0.00 1001.1
20260507153001 6 0.0 0.0 0.00 0.00 0.00 1001.0
20260507151958 5 0.0 0.0 0.00 0.00 0.00 1000.9
20260507150958 6 0.0 0.0 0.00 0.00 0.00 1000.8
20260507145954 6 0.0 0.0 0.00 0.00 0.00 1000.6
20260507144952 5 0.0 0.0 0.00 0.00 0.00 1000.6
20260507143950 5 0.0 0.0 0.00 0.00 0.00 1000.5
20260507142947 6 0.0 0.0 0.00 0.00 0.00 1000.4
20260507141945 5 0.0 0.0 0.00 0.00 0.00 1000.4